Regional Weather Roundup
Issued by NWS

Home | Current Version | Previous Version | Graphics & Text | Print | Product List | Glossary On
Versions: 1 2 3 4 5 6 7 8 9 10 11 12 13 14 15 16 17 18 19 20 21 22 23 24 25 26 27 28 29 30 31 32 33 34 35 36 37 38 39 40 41 42 43 44 45 46 47 48 49 50
000
ASUS44 KMEG 301500
RWRTN
TENNESSEE HOURLY STATE WEATHER ROUNDUP
NATIONAL WEATHER SERVICE MEMPHIS TN
900 AM CST FRI JAN 30 2015

TNZ002-004-019-021-049-052-054-088>092-301600-
WEST TENNESSEE

CITY           SKY/WX    TMP DP  RH WIND       PRES   REMARKS
MEMPHIS INTL   MOSUNNY   40  27  59 NE10      30.50R WCI  33
NWS MEMPHIS      N/A     38 N/A N/A MISG        N/A
JACKSON        PTSUNNY   37  25  61 NE10      30.50R WCI  30
DYERSBURG      SUNNY     37  18  44 NE9       30.54R WCI  31
UNION CITY     SUNNY     34  23  64 NE15      30.51R WCI  24
PARIS          CLOUDY    34  21  60 NE9       30.49R WCI  26
LEXINGTON      CLOUDY    36  21  55 NE9       30.48R WCI  29
SAVANNAH       MOSUNNY   37  23  56 N14       30.50R WCI  29
$$

TNZ008-025-027-028-033-062-065-066-301600-
NORTH MIDDLE TENNESSEE

CITY           SKY/WX    TMP DP  RH WIND       PRES   REMARKS
NASHVILLE      PTSUNNY   38  21  50 N10       30.48R WCI  31
CLARKSVILLE    CLOUDY    36  26  67 N10       30.49R WCI  28
COOKEVILLE     MOSUNNY   36  23  60 N10       30.39R WCI  28
CROSSVILLE     CLOUDY    32  25  75 NW10      30.35R WCI  24
$$

TNZ061-075-076-078-094-096-097-301600-
SOUTH MIDDLE TENNESSEE

CITY           SKY/WX    TMP DP  RH WIND       PRES   REMARKS
FAYETTEVILLE   CLOUDY    34  21  60 MISG      30.44R
TULLAHOMA      CLOUDY    34  23  64 N12       30.42R WCI  25
WINCHESTER     CLOUDY    34  27  75 N12       30.43R WCI  25
COLUMBIA       CLOUDY    36  27  69 N8        30.46R WCI  29
SHELBYVILLE    CLOUDY    36  27  69 NW9       30.46R WCI  29
$$

TNZ017-018-042-046-047-301600-
NORTHEAST TENNESSEE

CITY           SKY/WX    TMP DP  RH WIND       PRES   REMARKS
TRI CITIES     PTSUNNY   37  23  56 W9        30.27R WCI  30
ELIZABETHTON   CLOUDY    30  21  69 SW10      30.25R WCI  21
$$

TNZ012-013-036-069-073-074-301600-
CENTRAL EAST TENNESSEE

CITY           SKY/WX    TMP DP  RH WIND       PRES   REMARKS
KNOXVILLE      CLOUDY    37  24  59 N7        30.37R WCI  32
OAK RIDGE      CLOUDY    37  27  67 N7        30.39R WCI  32
GATLINBURG     CLOUDY    34  23  64 W7        30.36R WCI  28
$$

TNZ083-085-099-301600-
SOUTHEAST TENNESSEE

CITY           SKY/WX    TMP DP  RH WIND       PRES   REMARKS
CHATTANOOGA    CLOUDY    40  24  53 N17       30.40R WCI  31
$$

SKY/WX REPORTED AS FAIR MEANS FEW OR NO CLOUDS BELOW
12 THOUSAND FEET.



USA.gov is the U.S. government's official web portal to all federal, state and local government web resources and services.